TimeEDT,TemperatureF,Dew PointF,Humidity,Sea Level PressureIn,VisibilityMPH,Wind Direction,Wind SpeedMPH,Gust SpeedMPH,PrecipitationIn,Events,Conditions,WindDirDegrees,DateUTC
12:53 AM,45.0,32.0,60,30.13,10.0,ENE,6.9,-,N/A,,Overcast,70,2013-04-12 04:53:00
1:53 AM,45.0,32.0,60,30.11,10.0,ENE,5.8,-,N/A,,Overcast,70,2013-04-12 05:53:00
2:53 AM,44.1,32.0,63,30.12,10.0,ENE,9.2,-,N/A,,Overcast,70,2013-04-12 06:53:00
3:53 AM,44.1,34.0,68,30.12,10.0,ENE,6.9,-,N/A,,Overcast,60,2013-04-12 07:53:00
4:53 AM,43.0,34.0,71,30.11,10.0,ENE,11.5,18.4,N/A,,Overcast,70,2013-04-12 08:53:00
5:53 AM,43.0,30.9,62,30.11,10.0,ENE,13.8,-,N/A,,Overcast,70,2013-04-12 09:53:00
6:53 AM,43.0,30.0,60,30.11,10.0,ENE,12.7,-,N/A,,Overcast,70,2013-04-12 10:53:00
7:53 AM,43.0,30.0,60,30.11,10.0,ENE,16.1,20.7,N/A,,Overcast,70,2013-04-12 11:53:00
8:53 AM,43.0,30.0,60,30.11,10.0,East,15.0,23.0,0.00,,Overcast,80,2013-04-12 12:53:00
9:53 AM,44.1,30.0,58,30.07,10.0,ESE,21.9,31.1,0.00,,Overcast,110,2013-04-12 13:53:00
10:53 AM,43.0,32.0,65,30.04,10.0,East,13.8,24.2,N/A,,Overcast,90,2013-04-12 14:53:00
11:53 AM,39.9,34.0,79,30.01,3.0,East,13.8,27.6,0.01,Rain,Light Rain,90,2013-04-12 15:53:00
12:18 PM,39.2,35.6,87,30.01,2.0,East,15.0,21.9,0.04,Rain,Rain,100,2013-04-12 16:18:00
12:43 PM,39.2,35.6,87,30.00,2.0,East,12.7,20.7,0.09,Rain,Rain,90,2013-04-12 16:43:00
12:50 PM,39.2,35.6,87,30.00,2.0,East,13.8,21.9,0.10,Rain,Light Rain,90,2013-04-12 16:50:00
12:53 PM,39.0,36.0,89,30.00,2.0,ESE,13.8,21.9,0.10,Rain,Light Rain,110,2013-04-12 16:53:00
12:56 PM,39.2,35.6,87,30.00,3.0,East,12.7,21.9,0.01,Rain,Rain,100,2013-04-12 16:56:00
1:03 PM,39.2,35.6,87,30.00,2.0,ESE,18.4,29.9,0.02,Rain,Rain,120,2013-04-12 17:03:00
1:49 PM,39.2,35.6,87,29.98,4.0,East,16.1,25.3,0.09,Rain,Rain,90,2013-04-12 17:49:00
1:53 PM,39.0,36.0,89,29.97,3.0,East,19.6,29.9,0.10,Rain,Rain,90,2013-04-12 17:53:00
2:06 PM,39.2,35.6,87,29.97,2.0,East,13.8,21.9,0.00,Rain,Light Rain,90,2013-04-12 18:06:00
2:10 PM,39.2,35.6,87,29.96,3.0,East,15.0,-,0.01,Rain,Rain,80,2013-04-12 18:10:00
2:53 PM,39.0,37.0,93,29.95,3.0,East,13.8,-,0.07,Rain,Rain,90,2013-04-12 18:53:00
3:53 PM,39.9,37.0,89,29.87,4.0,East,13.8,-,0.04,Rain,Light Rain,80,2013-04-12 19:53:00
4:53 PM,39.9,37.0,89,29.84,3.0,ENE,10.4,-,0.04,Rain,Light Rain,60,2013-04-12 20:53:00
5:53 PM,39.9,37.9,93,29.82,3.0,NE,10.4,-,0.02,Rain,Light Rain,50,2013-04-12 21:53:00
6:53 PM,39.9,37.9,93,29.78,2.5,NNE,10.4,-,0.17,Rain,Light Rain,30,2013-04-12 22:53:00
7:53 PM,39.9,37.9,93,29.76,10.0,NNE,9.2,18.4,0.02,,Overcast,30,2013-04-12 23:53:00
8:53 PM,41.0,37.9,89,29.74,10.0,NNE,12.7,-,0.00,Rain,Light Rain,20,2013-04-13 00:53:00
9:53 PM,41.0,39.0,93,29.74,7.0,North,10.4,19.6,0.01,,Overcast,10,2013-04-13 01:53:00
10:53 PM,41.0,39.0,93,29.72,9.0,North,9.2,18.4,0.00,Rain,Light Rain,360,2013-04-13 02:53:00
11:53 PM,39.9,37.9,93,29.73,10.0,North,9.2,17.3,0.00,Rain,Light Rain,10,2013-04-13 03:53:00